[ hide orbit diagram ]
For accurate long-term ephemerides, please instead use our Horizons system.This orbit viewer was implemented using two-body methods, and hence should not be used for determining accurate long-term trajectories (over several years or decades) or planetary encounter circumstances.
Orbital Elements at Epoch 2459000.5 (2020-May-31.0) TDB
Reference: JPL 15 (heliocentric ecliptic J2000)
Element | Value | Uncertainty (1-sigma) | Units |
e | .05273235130000217 | 5.5735e-08 | |
a | 3.088643141952035 | 4.183e-08 | au |
q | 2.925771726750278 | 1.7964e-07 | au |
i | 9.77171066668604 | 6.8779e-06 | deg |
node | 245.9318638585223 | 3.9519e-05 | deg |
peri | 214.1124755675388 | 8.2122e-05 | deg |
M | 347.7246056739633 | 7.3097e-05 | deg |
tp | 2459068.105647727754 (2020-Aug-06.60564773) | 0.000403 | TDB |
period | 1982.66813558642 5.43 | 4.0277e-05 1.103e-07 | d yr |
n | .1815735036733828 | 3.6886e-09 | deg/d |
Q | 3.251514557153793 | 4.4036e-08 | au |
|
| | Orbit Determination Parameters
Additional Information
|
[ show covariance matrix ]
Physical Parameter Table
Parameter |
Symbol |
Value |
Units |
Sigma |
Reference |
Notes |
absolute magnitude |
H |
15.7 |
|
n/a |
MPO503287 |
|
diameter |
diameter |
3.191 |
km |
0.867 |
urn:nasa:pds:neowise_diameters_albedos::2.0[mainbelt] (http://adsabs.harvard.edu/abs/2011ApJ...741...68M) |
|
geometric albedo |
albedo |
0.109 |
|
0.081 |
urn:nasa:pds:neowise_diameters_albedos::2.0[mainbelt] (http://adsabs.harvard.edu/abs/2011ApJ...741...68M) |
|
|
295651 (2008 ST307) Discovered 2008-Sep-29 by Mt. Lemmon Survey at Mount Lemmon |
Reference: 20110912/Numbers.arc | Last Updated: 2011-09-14 |
|
[ show close-approach data ]
|